Regional Weather Roundup
Issued by NWS

Home | Current Version | Previous Version | Text Only | Print | Product List | Glossary Off
Versions: 1 2 3 4 5 6 7 8 9 10 11 12 13 14 15 16 17 18 19 20 21 22 23 24 25 26 27 28 29 30 31 32 33 34 35 36 37 38 39 40 41 42 43 44 45 46 47 48 49 50

000
ASUS43 KIND 281809
RWRIN

WEATHER ROUNDUP FOR INDIANA
NATIONAL WEATHER SERVICE INDIANAPOLIS IN
200 PM EDT THU MAY 28 2015

NOTE: "FAIR" INDICATES FEW OR NO CLOUDS BELOW 12,000 FEET WITH NO
SIGNIFICANT WEATHER AND/OR OBSTRUCTIONS TO VISIBILITY.

* - STATION DOES NOT REPORT WEATHER SUCH AS PRECIPITATION OR FOG.

+ - STATION NOT QUALITY CONTROLLED BY THE NATIONAL WEATHER SERVICE.
    USE DATA WITH CAUTION...ESPECIALLY DEWPOINT AND RELATIVE
    HUMIDITY OBSERVATIONS.

INZ001>003-010>013-019-020-281900-
NORTHWEST INDIANA

CITY           SKY/WX    TMP DP  RH WIND       PRES   REMARKS
GARY /AIRPORT/ MOSUNNY   79  59  50 E9        30.20F
KNOX *+        SUNNY     79  54  41 E10G16    30.20S
LA PORTE +     SUNNY     81  54  38 SE13      30.21F
6HR MIN TEMP:  60; 6HR MAX TEMP:  82;

MICHIGAN CITY+ SUNNY     79  52  38 S7        30.21F
MONTICELLO +   SUNNY     77  60  55 E10       30.19F
6HR MIN TEMP:  60; 6HR MAX TEMP:  77;

RENSSELAER +   SUNNY     81  54  39 E13G18    30.19F
VALPARAISO     SUNNY     80  52  37 E13       30.20F
6HR MIN TEMP:  58; 6HR MAX TEMP:  81;


$$

LMZ046-743>745-281900-
SOUTHERN LAKE MICHIGAN

STATION/POSITION TIME  TEMP    WIND        PRES    WAVE
                       AIR SEA DIR/SP/G            HT
                 (UTC) (F)     (DEG/KT/KT) (MB)    (FT)
BURNS HARBOR     1800   65      40/ 12/ 14 1023.0S
MICHIGAN CITY    1800   77     100/  6/ 11   N/A
5NW MICH CITY    1800   62 55   10/  4/  6   N/A     0

$$

INZ004-005-014>016-021>024-281900-
NORTH CENTRAL INDIANA

CITY           SKY/WX    TMP DP  RH WIND       PRES   REMARKS
ELKHART        SUNNY     77  52  41 E10       30.22F
GOSHEN         SUNNY     80  57  45 E12       30.22F
LOGANSPORT +   SUNNY     79  52  38 E10G18    30.21F
PERU/GRISSOM   SUNNY     78  60  53 E17G23    30.19F
6HR MIN TEMP:  60; 6HR MAX TEMP:  78;

ROCHESTER +    SUNNY     79  59  50 E14       30.22F
SOUTH BEND     SUNNY     79  53  40 E14       30.21F
6HR MIN TEMP:  59; 6HR MAX TEMP:  80;

WARSAW +       SUNNY     77  59  53 E13       30.22F

$$

INZ006>009-017-018-025>027-281900-
NORTHEAST INDIANA

CITY           SKY/WX    TMP DP  RH WIND       PRES   REMARKS
ANGOLA *+      SUNNY     75  57  53 E8        30.24F
AUBURN +       SUNNY     77  55  47 E8        30.25F
FORT WAYNE     MOSUNNY   76  60  57 SE10      30.24F
6HR MIN TEMP:  60; 6HR MAX TEMP:  77;

HUNTINGTON +   SUNNY     76  59  56 SE10      30.22F
6HR MIN TEMP:  58; 6HR MAX TEMP:  76;


$$

INZ028-029-035-036-043>045-051>053-281900-
WEST CENTRAL INDIANA

CITY           SKY/WX    TMP DP  RH WIND       PRES   REMARKS
CRAWFORDSVL +  SUNNY     77  48  35 E9        30.18F
6HR MIN TEMP:  60; 6HR MAX TEMP:  78;

GREENCASTLE +  SUNNY     79  54  41 S6        30.18F
LAFAYETTE      SUNNY     77  60  55 E13       30.18F
6HR MIN TEMP:  60; 6HR MAX TEMP:  77;

TERRE HAUTE    SUNNY     82  60  47 S8        30.16F
6HR MIN TEMP:  65; 6HR MAX TEMP:  83;


$$

INZ030>032-037>040-046>048-054>057-064-065-281900-
CENTRAL INDIANA

CITY           SKY/WX    TMP DP  RH WIND       PRES   REMARKS
ANDERSON       MOSUNNY   77  54  44 E8        30.22F
CP ATTERBURY + MOSUNNY   79  63  57 E3        30.19F
COLUMBUS       PTSUNNY   79  59  50 S3        30.19F
FISHERS *+     MOSUNNY   79  63  57 SE9       30.19F
FRANKFORT +    SUNNY     82  53  37 NE9       30.21F
6HR MIN TEMP:  60; 6HR MAX TEMP:  82;

GREENWOOD *+   SUNNY     79  57  47 E6        30.19F
INDIANAPOLIS   MOSUNNY   81  58  45 SE7       30.17F
6HR MIN TEMP:  64; 6HR MAX TEMP:  81;

-EAGLE CREEK   SUNNY     79  56  45 VRB5      30.18F
6HR MIN TEMP:  63; 6HR MAX TEMP:  80;

KOKOMO *+      SUNNY     79  59  50 E15       30.19F
6HR MIN TEMP:  59; 6HR MAX TEMP:  79;

MARION +       SUNNY     78  55  45 E9        30.21F
MT COMFORT *+  SUNNY     81  45  28 S7        30.20F
SHELBYVILLE    MOSUNNY   82  60  47 S7        30.18F
6HR MIN TEMP:  66; 6HR MAX TEMP:  82;

ZIONSVILLE +   SUNNY     79  55  43 SE7       30.21F
6HR MIN TEMP:  61; 6HR MAX TEMP:  79;


$$

INZ033-034-041-042-049-050-058-059-281900-
EAST CENTRAL INDIANA

CITY           SKY/WX    TMP DP  RH WIND       PRES   REMARKS
MUNCIE         SUNNY     80  57  45 VRB5      30.21F
6HR MIN TEMP:  62; 6HR MAX TEMP:  80;


$$

INZ060-061-067>069-081>083-085>088-281900-
SOUTHWEST INDIANA

CITY           SKY/WX    TMP DP  RH WIND       PRES   REMARKS
EVANSVILLE     PTSUNNY   81  65  58 SE8       30.16F
6HR MIN TEMP:  65; 6HR MAX TEMP:  82;

HUNTINGBURG *+ PTSUNNY   79  66  65 SE9       30.17F
6HR MIN TEMP:  66; 6HR MAX TEMP:  79;

WASHINGTON +   SUNNY     81  61  50 SE7       30.16F
6HR MIN TEMP:  63; 6HR MAX TEMP:  82;


$$

INZ062-063-066-070>080-084-089>092-281900-
SOUTH CENTRAL AND SOUTHEAST INDIANA

CITY           SKY/WX    TMP DP  RH WIND       PRES   REMARKS
BLOOMINGTON    SUNNY     81  62  52 S6        30.18F
6HR MIN TEMP:  62; 6HR MAX TEMP:  82;

MADISON *+     PTSUNNY   77  63  61 SE5       30.23S
NORTH VERNON + SUNNY     81  64  57 CALM      30.20F
SEYMOUR +      SUNNY     81  64  57 S8        30.18F

$$




USA.gov is the U.S. government's official web portal to all federal, state and local government web resources and services.